Regional Weather Roundup
Issued by NWS

Home | Current Version | Previous Version | Text Only | Print | Product List | Glossary Off
Versions: 1 2 3 4 5 6 7 8 9 10 11 12 13 14 15 16 17 18 19 20 21 22 23 24 25 26 27 28 29 30 31 32 33 34 35 36 37 38 39 40 41 42 43 44 45 46 47 48 49 50

000
ASUS43 KLMK 251510
RWRKY
KENTUCKY REGIONAL WEATHER ROUNDUP
NATIONAL WEATHER SERVICE LOUISVILLE KY
1100 AM EDT MON JUL 25 2016

NOTE "FAIR" INDICATES FEW OR NO CLOUDS BELOW 12,000 FEET
WITH NO SIGNIFICANT WEATHER AND/OR OBSTRUCTIONS TO VISIBILITY.

KYZ001>023-026-027-061>063-070>075-251600-
WESTERN AND SOUTH CENTRAL KENTUCKY

CITY           SKY/WX    TMP DP  RH WIND       PRES   REMARKS
PADUCAH        MOSUNNY   87  78  74 VRB7      30.00S HX 100
HENDERSON      CLOUDY    88  79  74 SW5       29.99R HX 102
OWENSBORO      CLOUDY    88  81  79 S7        30.01S HX 106
HOPKINSVILLE   MOSUNNY   87  76  70 SW7       30.03S HX  97
BOWLING GREEN  CLOUDY    88  75  65 SW10      30.03S HX  97
GLASGOW        CLOUDY    86  75  68 SW8       30.04S HX  94
$$

KYZ024-025-028>034-038-045-046-053-251600-
NORTH CENTRAL KENTUCKY

CITY           SKY/WX    TMP DP  RH WIND       PRES   REMARKS
LOUISVILLE/SDF CLOUDY    89  75  63 SW6       30.00R HX  99
LOUISVILLE/LOU MOSUNNY   89  75  63 VRB6      30.01R HX  99
FORT KNOX      MOSUNNY   87  76  71 SW7       30.01R HX  97
$$

KYZ035>037-039>044-047>052-055>060-089>105-251600-
NORTHEAST KENTUCKY

CITY           SKY/WX    TMP DP  RH WIND       PRES   REMARKS
LEXINGTON      CLOUDY    88  75  65 SW8       30.04R HX  97
COVINGTON      PTSUNNY   87  77  72 W7        30.02R HX  99
FRANKFORT      PTSUNNY   87  75  67 W7        30.02R HX  96
$$

KYZ054-064>069-076>088-106>120-251600-
SOUTHEAST KENTUCKY

CITY           SKY/WX    TMP DP  RH WIND       PRES   REMARKS
JACKSON        CLOUDY    83  75  77 CALM      30.09S HX  90
LONDON         SUNNY     85  72  65 S6        30.07F HX  91
SOMERSET       CLOUDY    82  72  69 SW6       30.07F
MIDDLESBORO    SUNNY     86  76  71 N3        30.09F HX  95
MONTICELLO     SUNNY    N/A N/A N/A NW10      30.08F
$$





USA.gov is the U.S. government's official web portal to all federal, state and local government web resources and services.